Regional Weather Roundup
Issued by NWS Lake Charles, LA

Current Version | Previous Version | Text Only | Print | Product List | Glossary On
Versions: 1 2 3 4 5 6 7 8 9 10 11 12 13 14 15 16 17 18 19 20 21 22 23 24 25 26 27 28 29 30 31 32 33 34 35 36 37 38 39 40 41 42 43 44 45 46 47 48 49 50
000
ASUS44 KLCH 171910
RWRLCH
RWRLCH
REGIONAL WEATHER ROUNDUP
NATIONAL WEATHER SERVICE LAKE CHARLES LA
200 PM CDT WED SEP 17 2014

Note: "fair" indicates few or no clouds below 12,000 feet with no
significant weather and/or obstructions to visibility.


ACROSS SOUTHEAST TEXAS

CITY           SKY/WX    TMP DP  RH WIND       PRES   REMARKS
BEAUMONT       TSTM      78  76  93 S7        29.94F
BEAUMONT CITY    N/A     82  76  80 S9        29.94F
ORANGE         MOCLDY    83  76  79 S14       29.96F
JASPER         PTSUNNY   85  72  64 NE6       29.97F
$$

ACROSS CENTRAL LOUISIANA

CITY           SKY/WX    TMP DP  RH WIND       PRES   REMARKS
LEESVILLE      PTSUNNY   85  71  63 CALM      29.95F
FULLERTON        N/A     88  71  57 CALM      29.93F
ALEXANDRIA INT PTSUNNY   87  72  60 VRB6      29.94F
ESLER FIELD    PTSUNNY   85  72  65 CALM      29.96F
DERIDDER         N/A     85  72  63 SE5       29.97F HAZE
OAKDALE        CLOUDY    84  74  71 E3        29.95F
OPELOUSAS        N/A     86  73  64 CALM      29.95F
$$

ACROSS SOUTHWEST AND SOUTH CENTRAL LOUISIANA

CITY           SKY/WX    TMP DP  RH WIND       PRES   REMARKS
SULPHUR        PTCLDY    87  74  66 CALM      29.94F
LAKE CHARLES   MOSUNNY   86  73  65 CALM      29.93F
CHENNAULT INT  PTSUNNY   86  73  66 N6        29.94F
CAMERON PHI    PTCLDY    81  77  89 S12       29.97F
DEQUINCY       MOCLDY    85  74  68 CALM      29.94F
JENNINGS         N/A     84  73  69 N5        29.94F
LAFAYETTE      PTSUNNY   87  72  60 E5        29.94F
NEW IBERIA     MOSUNNY   89  72  56 VRB3      29.95F
ABBEVILLE      MOCLDY    87  74  64 W3        29.94F
PATTERSON      MOSUNNY   88  73  62 N3        29.97F
SALT POINT       N/A     87  75  67 VRB3      29.94F
$$

SELECTED SITES ACROSS THE REGION

CITY           SKY/WX    TMP DP  RH WIND       PRES   REMARKS
HOUSTON BUSH   CLOUDY    87  73  62 CALM      29.93F
HOUSTON HOBBY  TSTM      76  73  91 N9        29.93S FOG
GALVESTON      RAIN      76  75  97 N7        29.95F FOG
COLLEGE STAT   SUNNY     87  72  60 CALM      29.92F
CONROE         MOSUNNY   87  74  64 SE8       29.93F
HUNTSVILLE     PTSUNNY   85  73  67 CALM      29.93F
LUFKIN         MOSUNNY   88  73  61 CALM      29.95F
SHREVEPORT     PTSUNNY   88  70  55 CALM      29.93F
MONROE         MOSUNNY   87  69  54 CALM      29.95F
NATCHEZ MS     MOSUNNY   86  72  62 S3        29.96F
BATON ROUGE    PTSUNNY   86  73  65 NW5       29.95F
N.O. INTL ARPT PTSUNNY   86  73  65 N9        29.94F
SLIDELL        MOSUNNY   87  70  56 CALM      29.94F
$$

MARINE REPORTS

STATION/POSITION TIME  TEMP    WIND        PRES    VSBY  WAVE
                       AIR SEA DIR/SP/G                  HT/PER
                 (UTC) (F)     (DEG/KT/KT) (MB)    (MI)  (FT/S)
BUOY 30 S HIGH I 1900   81 84   90/  4/  6 1014.1F         1/ 5
SEA RIM ST PARK  1900   77     120/  9/ 11 1014.6F
PORT ARTHUR      1900      83  190/  4/  7 1014.3F
SABINE PASS N    1900   76 83  200/  4/  5 1014.5F
TEXAS POINT      1900   75 82  260/  2/  3 1014.7F
CALCASIEU PASS   1900   80 84  210/ 16/ 18 1015.0F
LK CHARLES BEACH 1900   85 83              1013.9F
MARSH ISLAND     NOT AVBL
FRESH WATER LOCK 1900   82 83  160/  7/ 11 1014.4F
AMERADA PASS     1900   82 85  280/  5/  7 1014.0F
$$



USA.gov is the U.S. government's official web portal to all federal, state and local government web resources and services.